Corpus Christi, TX

1:18 PM CDT on May 25, 2017 (GMT -0500)
Corpus Christi International

Weather History for KCRP - March, 2012

Change the Weather History Date:

Saturday, March 31, 2012

  Actual Average Record
Temperature  
Mean Temperature 83 °F 69 °F  
Max Temperature 93 °F 79 °F 93 °F (2012)
Min Temperature 72 °F 59 °F 30 °F (1987)
Degree Days  
Heating Degree Days 0 1  
Month to date heating degree days 23 81  
Since 1 July heating degree days 611 881  
Cooling Degree Days 18 5  
Month to date cooling degree days 258 115  
Year to date cooling degree days 403 191  
Growing Degree Days 31 (Base 50)    
Moisture  
Dew Point 69 °F    
Average Humidity 62    
Maximum Humidity 93    
Minimum Humidity 30    
Precipitation  
Precipitation 0.00 in 0.05 in 2.13 in (1945)
Month to date precipitation 1.35 1.89  
Year to date precipitation 5.89 5.36  
Snow  
Snow 0.00 in - - ()
Month to date snowfall 0.0  
Since 1 July snowfall 0.0  
Snow Depth 0.00 in    
Sea Level Pressure  
Sea Level Pressure 29.84 in    
Wind  
Wind Speed 11 mph (SSE)    
Max Wind Speed 29 mph    
Max Gust Speed 33 mph    
Visibility 8 miles    
Events      
T = Trace of Precipitation, MM = Missing Value Source: NWS Daily Summary

Daily Weather History Graph

Daily Weather History Graph

Search for Another Location

Airport or City:

Trip Planner

Search our weather history database for the weather conditions in past years. The results will help you decide how hot, cold, wet, or windy it might be!

Date:

Astronomy

Mar. 31, 2012 Rise Set
Actual Time 7:20 AM CDT 7:47 PM CDT
Civil Twilight 6:57 AM CDT 8:10 PM CDT
Nautical Twilight 6:29 AM CDT 8:38 PM CDT
Astronomical Twilight 6:02 AM CDT 9:06 PM CDT
Moon 1:48 PM CDT (3/31) 2:46 AM CDT (3/31)
Length of Visible Light 13h 13m
Length of Day
12h 26m
First Quarter, 59% of the Moon is Illuminated
Mar 31
First Quarter
Apr 6
Full
Apr 13
Last Quarter
Apr 21
New
Apr 29
First Quarter

Hourly Weather History & Observations

Time (CDT) Temp. Heat Index Dew Point Humidity Pressure Visibility Wind Dir Wind Speed Gust Speed Precip Events Conditions
12:01 AM 73.4 °F - 69.8 °F 88% 29.87 in 10.0 mi South 15.0 mph - N/A   Mostly Cloudy
12:24 AM 73.4 °F - 69.8 °F 88% 29.87 in 10.0 mi South 16.1 mph - N/A   Mostly Cloudy
12:51 AM 73.9 °F - 70.0 °F 87% 29.86 in 10.0 mi South 12.7 mph - N/A   Mostly Cloudy
1:12 AM 73.4 °F - 69.8 °F 88% 29.85 in 10.0 mi South 9.2 mph - N/A   Scattered Clouds
1:51 AM 72.0 °F - 69.1 °F 91% 29.83 in 10.0 mi SE 8.1 mph - N/A   Mostly Cloudy
2:51 AM 73.0 °F - 70.0 °F 90% 29.83 in 8.0 mi South 9.2 mph - N/A   Overcast
3:30 AM 73.4 °F - 69.8 °F 88% 29.83 in 8.0 mi SSE 9.2 mph - N/A   Scattered Clouds
3:51 AM 73.0 °F - 70.0 °F 90% 29.82 in 10.0 mi SSE 9.2 mph - N/A   Partly Cloudy
4:43 AM 71.6 °F - 69.8 °F 94% 29.81 in 7.0 mi SSE 6.9 mph - N/A   Mostly Cloudy
4:51 AM 72.0 °F - 70.0 °F 93% 29.81 in 7.0 mi SSE 6.9 mph - N/A   Mostly Cloudy
5:51 AM 73.0 °F - 70.0 °F 90% 29.83 in 7.0 mi SSE 6.9 mph - N/A   Mostly Cloudy
6:37 AM 73.4 °F - 71.6 °F 94% 29.85 in 7.0 mi SSE 5.8 mph - N/A   Mostly Cloudy
6:51 AM 73.0 °F - 71.1 °F 93% 29.85 in 7.0 mi SSE 5.8 mph - N/A   Mostly Cloudy
7:13 AM 73.4 °F - 71.6 °F 94% 29.86 in 7.0 mi SSE 8.1 mph - N/A   Mostly Cloudy
7:51 AM 73.0 °F - 71.1 °F 93% 29.86 in 6.0 mi SSE 6.9 mph - N/A   Mostly Cloudy
8:45 AM 75.2 °F - 71.6 °F 89% 29.88 in 7.0 mi SE 8.1 mph - N/A   Partly Cloudy
8:51 AM 75.9 °F - 72.0 °F 87% 29.88 in 7.0 mi SSE 9.2 mph - N/A   Partly Cloudy
9:51 AM 78.1 °F - 70.0 °F 76% 29.88 in 10.0 mi SSE 10.4 mph - N/A   Scattered Clouds
10:51 AM 81.0 °F 84.1 °F 69.1 °F 67% 29.89 in 10.0 mi SSE 9.2 mph - N/A   Partly Cloudy
11:51 AM 84.0 °F 86.5 °F 66.9 °F 56% 29.88 in 10.0 mi SW 4.6 mph - N/A   Partly Cloudy
12:51 PM 87.1 °F 88.9 °F 64.9 °F 48% 29.85 in 10.0 mi Calm Calm - N/A   Clear
1:51 PM 91.0 °F 94.3 °F 66.9 °F 45% 29.83 in 10.0 mi East 4.6 mph - N/A   Partly Cloudy
2:51 PM 91.9 °F 95.4 °F 66.9 °F 44% 29.81 in 10.0 mi SE 16.1 mph 25.3 mph N/A   Partly Cloudy
3:51 PM 91.0 °F 92.6 °F 64.0 °F 41% 29.79 in 10.0 mi SE 12.7 mph 24.2 mph N/A   Partly Cloudy
4:51 PM 91.9 °F 90.3 °F 55.9 °F 30% 29.79 in 10.0 mi SE 17.3 mph 24.2 mph N/A   Partly Cloudy
5:51 PM 84.0 °F 87.0 °F 68.0 °F 58% 29.80 in 10.0 mi SE 18.4 mph - N/A   Partly Cloudy
6:51 PM 81.0 °F 83.8 °F 68.0 °F 65% 29.81 in 10.0 mi SE 18.4 mph - N/A   Partly Cloudy
7:51 PM 77.0 °F - 69.1 °F 76% 29.82 in 10.0 mi SE 17.3 mph - N/A   Partly Cloudy
8:51 PM 75.0 °F - 70.0 °F 84% 29.83 in 10.0 mi SE 15.0 mph - N/A   Partly Cloudy
9:41 PM 75.2 °F - 71.6 °F 89% 29.85 in 7.0 mi SE 15.0 mph - N/A   Scattered Clouds
9:46 PM 75.2 °F - 71.6 °F 89% 29.85 in 6.0 mi SE 15.0 mph - N/A   Mostly Cloudy
9:51 PM 75.0 °F - 71.1 °F 87% 29.85 in 6.0 mi SE 12.7 mph - N/A   Mostly Cloudy
10:16 PM 75.2 °F - 71.6 °F 89% 29.86 in 7.0 mi SE 13.8 mph - N/A   Scattered Clouds
10:51 PM 73.9 °F - 71.1 °F 91% 29.86 in 6.0 mi SE 13.8 mph - N/A   Scattered Clouds
11:03 PM 73.4 °F - 71.6 °F 94% 29.86 in 7.0 mi SE 13.8 mph - N/A   Mostly Cloudy
11:51 PM 75.0 °F - 71.1 °F 87% 29.86 in 9.0 mi SSE 13.8 mph - N/A   Mostly Cloudy